Location: Turtle Rock Observatory
(36.6913°N, 81.9708°W)
Time: 13:20:37
(UTC-04:00)

Daily predictions for brighter satellites

Satellite Brightness Start Highest point End
(mag) Time Altitude Azimuth Time Altitude Azimuth Time Altitude Azimuth
NOSS 2-2 (E) 4.1 21:01:58 10° SW 21:06:01 66° NW 21:10:42 10° NNE
Cosmos 1782 3.8 21:06:58 10° NNE 21:10:34 30° ENE 21:14:09 10° SE
CZ-4B DEB 4.4 21:07:35 10° SSW 21:10:39 37° W 21:13:44 10° NNW
Envisat 4.2 21:06:45 10° ESE 21:10:52 26° ENE 21:15:01 10° NNE
GPS 2-05 Rocket1 3.4 21:09:48 10° WSW 21:13:22 45° SSE 21:16:53 10° E
ERBS 2.3 21:10:33 10° NW 21:14:03 90° NE 21:17:30 10° SE
H-2A R/B 2.7 21:10:23 10° SSE 21:14:04 86° WSW 21:17:49 10° NNW
Cosmos 1624 Rocket 4.1 21:09:03 10° SSW 21:14:19 87° WNW 21:19:40 10° NNE
CZ-4 DEB 3.2 21:11:19 10° SSE 21:14:20 43° ENE 21:17:22 10° N
Atlas Centaur 2 2.1 21:11:52 10° WSW 21:15:06 29° S 21:18:09 10° ESE
Abrixas rocket 4.2 21:13:13 10° W 21:16:00 23° SW 21:18:43 10° S
Coronas F rocket 1.5 21:16:27 10° SSW 21:19:04 70° W 21:21:43 10° N
Cosmos 1939 Rocket 3.8 21:17:54 10° SE 21:21:17 29° ENE 21:24:42 10° N
Cosmos 2084 3.4 21:24:08 10° SSW 21:27:51 46° ESE 21:31:32 10° NE
CZ-3A R/B 4.4 21:01:42 10° W 21:28:17 37° SSW 21:33:02 12° SE
ERS-1 Rocket 3.1 21:23:24 10° SSE 21:28:18 56° ENE 21:33:14 10° N
ATLAS 5 CENTAUR R/B 2.5 21:22:20 10° NNW 21:28:27 85° WSW 21:34:57 10° SSE
Cosmos 1908 Rocket 4.1 21:24:35 10° SSE 21:28:37 37° E 21:32:43 10° NNE
Cosmos 407 Rocket 3.8 21:25:13 10° N 21:30:22 51° ENE 21:35:07 12° SE
NOSS 5 (C) 4.4 21:26:56 10° SSW 21:30:32 57° ESE 21:33:38 10° NE
Cosmos 1733 Rocket 3.1 21:26:15 10° S 21:30:40 83° W 21:35:04 10° N
Meteor 2-6 Rocket 4.4 21:25:20 10° N 21:31:13 60° E 21:36:56 10° SSE
deb Chang Zheng 4 3.8 21:34:05 10° NNE 21:38:23 50° E 21:42:42 10° S
Cosmos 1452 Rocket 3.6 21:33:20 10° S 21:38:28 58° ESE 21:43:38 10° NNE
Cosmos 2154 Rocket 4.1 21:35:26 10° SSE 21:41:28 56° E 21:47:31 10° NNE
USA 234 4.5 21:38:17 10° E 21:42:08 16° ESE 21:44:00 15° SE
COSMOS 2406 3.5 21:37:03 10° NNW 21:42:46 70° WSW 21:48:25 10° SSE
Cosmos 1190 Rocket 4.0 21:39:50 10° NNW 21:45:03 89° ENE 21:49:53 12° SSE
YAOGAN 6 4.2 21:44:08 16° E 21:45:12 18° ENE 21:47:40 10° NNE
Cosmos 1408 3.1 21:43:50 16° SSE 21:46:25 38° E 21:49:50 10° NNE
Cosmos 2184 Rocket 4.5 21:41:56 10° SSW 21:48:00 63° W 21:54:08 10° N
YAOGAN 11 4.4 21:44:02 10° S 21:48:31 71° WSW 21:53:05 10° NNW
Cosmos 2278 Rocket 2.2 21:43:09 10° S 21:48:40 57° ESE 21:54:14 10° NNE
ALOS 4.0 21:44:52 10° SSW 21:49:00 31° W 21:53:10 10° NW
Cosmos 1242 Rocket 4.3 21:47:13 10° NNE 21:49:47 18° ENE 21:50:30 17° E
Cosmos 1825 2.5 21:47:48 15° SSE 21:50:45 46° E 21:54:26 10° NNE
SJ-11-01 4.4 21:46:36 10° S 21:51:21 81° W 21:56:07 10° NNW
Cosmos 1844 Rocket 3.2 21:46:11 10° SSW 21:51:46 63° WNW 21:57:23 10° NNE
Intercosmos 25 4.4 21:52:52 22° ESE 21:53:12 22° E 21:55:48 10° NE
Cosmos 1844 3.8 21:47:47 10° SSW 21:53:33 83° WNW 21:59:23 10° NNE
PSLV R/B 4.3 21:55:39 24° E 21:56:02 25° ENE 21:58:32 10° NNE
H-2A R/B 2.0 21:55:26 19° SSE 21:58:31 72° ENE 22:02:44 10° N
Cosmos 1184 Rocket 3.0 21:59:21 28° SSE 22:00:48 49° E 22:04:02 10° NNE
CENTAUR R/B 4.0 21:57:07 10° NW 22:04:38 45° WSW 22:12:24 10° S
Cosmos 2082 Rocket 3.6 22:06:09 10° N 22:10:42 24° ENE 22:13:01 19° E
EO 1 Delta rocket 4.2 22:06:09 10° N 22:12:09 83° W 22:17:03 10° SSW
Terra 3.8 22:13:28 13° ENE 22:14:20 14° ENE 22:16:42 10° NE
ISS -1.9 22:11:56 10° WSW 22:15:01 40° NW 22:18:07 10° NE
Cosmos 676 Rocket 4.0 22:10:29 10° NNW 22:15:42 82° WSW 22:18:53 24° SSE
Centaur D-1A AC-32 3.7 22:14:14 10° SW 22:16:51 17° S 22:16:51 17° S
Cosmos 1238 Rocket 2.4 22:13:48 10° N 22:17:09 80° E 22:18:32 37° SSE
Cosmos 1174 3.1 22:14:56 10° NNW 22:18:03 74° WSW 22:18:30 58° S
Cosmos 1862 3.8 22:14:39 10° SSW 22:18:40 61° W 22:22:42 10° N
SPOT 5 3.0 22:15:47 24° SSE 22:19:01 84° ENE 22:24:24 10° NNW
Cosmos 1954 Rocket 3.9 22:15:11 10° NNW 22:20:26 85° ENE 22:23:04 30° SSE
Cosmos 2297 3.8 22:19:07 15° S 22:23:45 56° ESE 22:29:20 10° NNE
COS B Rocket 3.9 22:23:12 10° N 22:27:06 52° W 22:29:13 22° SSW
Okean 2 Rocket 3.0 22:25:23 26° S 22:27:52 87° E 22:32:17 10° N
OAO 3 Rocket 3.5 22:25:05 10° SW 22:29:47 44° SSE 22:30:20 43° SE
Okean 3 3.5 22:26:30 10° N 22:30:47 78° W 22:32:25 37° S
NOAA 11 4.4 22:30:26 36° SE 22:32:21 53° ENE 22:37:43 10° N
Cosmos 1741 Rocket 4.3 22:28:46 10° N 22:33:52 52° ENE 22:35:16 40° ESE
Cosmos 1606 4.2 22:31:51 10° NNW 22:35:27 35° W 22:37:46 18° SSW
Cosmos 2218 Rocket 4.1 22:33:57 31° SSE 22:36:59 60° E 22:43:17 10° NNE
Cosmos 1782 Rocket 4.3 22:38:01 15° SSW 22:41:28 51° W 22:45:51 10° N
CZ-4C R/B 4.5 22:43:58 30° ENE 22:43:58 30° ENE 22:47:09 10° N
Cosmos 1023 Rocket 4.4 22:38:44 10° NNW 22:43:52 88° WSW 22:45:23 47° SSE
SL-08 R/B 4.5 22:44:15 34° SSE 22:47:11 70° E 22:53:37 10° NNE
BREEZE-M DEB (TANK) 3.1 22:37:09 10° NW 22:47:17 66° NNE 22:48:20 47° E
MetOp-B 4.4 22:46:20 31° S 22:48:49 63° WSW 22:54:08 10° NNW
Envisat 4.4 22:46:06 15° SSW 22:49:42 33° W 22:54:17 10° NNW
GPS 2-05 Rocket1 3.6 22:47:53 10° W 22:50:40 48° WSW 22:50:40 48° WSW
COSMOS 2487 3.5 22:48:31 10° NNW 22:51:56 39° WSW 22:52:14 38° WSW
Cosmos 1959 Rocket 4.3 22:50:04 35° S 22:52:48 81° E 22:58:56 10° N
APEX 4.1 22:51:35 22° SW 22:53:54 54° WNW 22:58:40 10° NNE
Cosmos 1727 Rocket 4.2 22:48:44 10° N 22:54:46 53° E 22:56:01 45° ESE
DNEPR-1 R/B 3.5 22:52:53 10° NNW 22:58:06 89° SW 22:58:32 74° SSE
CARTOSAT-1 4.5 22:58:42 35° ENE 22:58:42 35° ENE 23:02:11 10° N
Cosmos 1975 Rocket 4.0 22:55:02 10° NNW 22:59:08 42° W 23:00:24 33° SW
Meteor 2-19 Rocket 4.5 23:00:07 51° SE 23:01:11 58° E 23:07:11 10° NNE
ARGOS 3.2 23:05:13 51° S 23:06:32 73° WSW 23:11:54 10° NNW
Cosmos 614 Rocket 3.8 23:02:59 10° NNW 23:08:04 82° WSW 23:08:37 70° S
OAO 1 Rocket 4.3 23:03:16 10° WSW 23:08:18 67° S 23:08:18 67° S
Meteor 1-20 Rocket 4.1 23:11:44 64° ESE 23:12:02 66° E 23:17:32 10° NNE
Cosmos 1536 Rocket 3.7 23:07:36 10° N 23:11:40 68° NE 23:11:40 68° NE
H-2A R/B 2.1 23:13:15 65° ESE 23:13:39 67° ENE 23:18:56 10° N
CZ-4 R/B 4.1 23:09:14 10° N 23:13:51 63° WNW 23:14:48 50° SW
Meteor 2-8 Rocket 4.3 23:08:29 10° N 23:14:40 77° E 23:15:43 62° SSE
Cosmos 1140 Rocket 4.4 23:13:15 10° NNW 23:18:03 40° WSW 23:19:08 36° SW
Timation 2 Rocket 4.2 23:12:12 10° NNW 23:18:03 58° WSW 23:19:21 48° SSW
Cosmos 1339 Rocket 4.4 23:13:05 10° N 23:19:14 70° E 23:20:00 63° SE
Meteor 1-17 Rocket 4.5 23:19:03 74° SSE 23:19:30 81° E 23:25:02 10° N
Meteor 1-25 Rocket 4.3 23:23:29 59° SSW 23:24:39 81° W 23:30:30 10° N
USA 234 3.1 23:19:08 10° NE 23:25:42 79° SE 23:30:49 18° SW
Cosmos 1833 Rocket 2.5 23:28:00 10° NNW 23:33:39 89° WSW 23:33:42 88° SSW
Landsat 7 4.2 23:36:06 57° W 23:36:06 57° W 23:40:32 10° NNW
Terra 2.5 23:52:21 50° WNW 23:52:21 50° WNW 23:56:15 10° NNW
CZ-3C R/B 4.3 23:46:25 10° WSW 23:50:58 15° SW 23:50:58 15° SW
